sim
Sign-in with your pilot id or email,
or register
Callsign
Passwort

Schedule Details

Flight Number: RYR5797 (1)
Departure: Frankfurt Hahn Airport (EDFH) at 15:50
Arrival: Thessaloniki International Airport (LGTS) at 18:25
Route: Ryanair Passenger Schedule. Enter filed route here before submitting Pirep.

Weather Information
Getting current METAR information for EDFH 172220Z 18005KT 140V210 9999 -RA BKN013 16/16 Q1011
Getting current METAR information for LGTS 172220Z VRB03KT 9999 FEW025 21/16 Q1015 NOSIG

Schedule Frequency

Route Map